This is the latest recevied weather packets stored in our database for station/object KF7SOJ. If no packets are shown the sender has not sent any weather packets the latest 10 day(s).
| Time | Temp. | Humidity | Pressure | Rain* | Wind** | Luminosity | Snow |
|---|---|---|---|---|---|---|---|
| 1787864127 | 33.89° C | 23% | 931.5 hPa | 0 mm | - | 679 W/m² | - |
| 1787863826 | 33.89° C | 23% | 931.6 hPa | 0 mm | - | 535 W/m² | - |
| 1787863524 | 33.89° C | 23% | 931.6 hPa | 0 mm | - | 391 W/m² | - |
| 1787863220 | 33.89° C | 22% | 931.7 hPa | 0 mm | - | 646 W/m² | - |
| 1787862915 | 33.89° C | 23% | 931.7 hPa | 0 mm | - | 593 W/m² | - |
| 1787862610 | 33.89° C | 23% | 931.8 hPa | 0 mm | - | 858 W/m² | - |
| 1787862306 | 33.89° C | 24% | 931.6 hPa | 0 mm | - | 830 W/m² | - |
| 1787862001 | 33.33° C | 22% | 932 hPa | 0 mm | - | 733 W/m² | - |
| 1787861701 | 33.33° C | 23% | 931.9 hPa | 0 mm | - | 596 W/m² | - |
| 1787861399 | 33.89° C | 21% | 932.1 hPa | 0 mm | - | 449 W/m² | - |
| 1787861094 | 33.33° C | 21% | 932.1 hPa | 0 mm | - | 591 W/m² | - |
| 1787860792 | 33.33° C | 21% | 932.2 hPa | 0 mm | - | 346 W/m² | - |
| 1787860488 | 33.89° C | 21% | 932.3 hPa | 0 mm | - | 618 W/m² | - |
| 1787860188 | 33.89° C | 21% | 932.3 hPa | 0 mm | - | 830 W/m² | - |
| 1787859884 | 33.89° C | 21% | 932.5 hPa | 0 mm | - | 686 W/m² | - |
| 1787859579 | 32.78° C | 22% | 932.4 hPa | 0 mm | - | 827 W/m² | - |
| 1787859273 | 32.78° C | 21% | 932.4 hPa | 0 mm | - | 663 W/m² | - |
| 1787858970 | 32.78° C | 21% | 932.6 hPa | 0 mm | - | 651 W/m² | - |
| 1787858665 | 32.78° C | 21% | 932.6 hPa | 0 mm | - | 525 W/m² | - |
| 1787858360 | 33.33° C | 20% | 932.5 hPa | 0 mm | - | 444 W/m² | - |
| 1787858055 | 33.33° C | 20% | 932.8 hPa | 0 mm | - | 635 W/m² | - |
| 1787857751 | 32.78° C | 20% | 932.7 hPa | 0 mm | - | 598 W/m² | - |
| 1787857447 | 32.78° C | 21% | 932.7 hPa | 0 mm | - | 855 W/m² | - |
| 1787857144 | 32.78° C | 23% | 932.9 hPa | 0 mm | - | 872 W/m² | - |
| 1787856840 | 32.78° C | 23% | 932.8 hPa | 0 mm | - | 726 W/m² | - |
* Rain latest hour (hover to see other rain measurements)
** Current wind speed in m/s (hover to see current wind gust speed)